Location: The Saddle
(36.8333°N, 80.3417°W)
Time: 05:02:40
(UTC-04:00)

Tiros 1 - Pass Details

Date: 31 January 2022
Orbit: 630 x 663 km, 48.4° (Epoch: 29 May)

Event Time Altitude Azimuth Distance (km) Brightness Sun altitude
Rises 20:24:46 0° 241° (WSW) 2,974 11.4 -32.0°
Reaches altitude 10° 20:27:07 10° 244° (WSW) 2,068 10.4 -32.4°
Enters shadow 20:29:33 30° 253° (WSW) 1,188 8.9 -32.9°
